www.pogodaiklimat.ru

Погода и климат >> Архив погоды >> Россия >> Ростовская область >> Гигант


АРХИВ ПОГОДЫ в Гиганте

Время (UTC), дата Ветер
(напр.,м/с)
 
Видим.   Явления Облачность Т
(С)
Тd
(С)
f
(%)
Тe
(С)
Тes
(С)
Комфортность P
(гПа)
Po
(гПа)
Тmin
(С)
Tmax
(С)
R
(мм)
R24
(мм)
S
(см)
12 18.05 В 4
{11}
20 км пыльный позёмок 8/3 600 м
[Sc Ac lent]
+24.4 +12.0 46 +26 +29 жарко 1010.3 1001.4
15 18.05 В 2 20 км {метель} 9/6 600 м
[Sc Ac lent Ci fib]
+23.8 +12.0 48 +26 +26 жарко 1009.1 1000.1 +25.4
18 18.05 СВ 4 20 км {метель} 8/3 600 м
[Sc Ci fib]
+20.7 +9.3 48 +22 +22 комфорт 1009.3 1000.2
21 18.05 СВ 4 20 км 9/0
[Ci]
+18.2 +6.8 47 +18 +18 1009.2 1000.1
00 19.05 СВ 3 20 км 3/0
[Ci fib]
+16.5 +7.5 55 +16 +16 1009.0 999.8
03 19.05 В 4 20 км 9/8 600 м
[Sc Ac cast]
+15.7 +10.5 71 +15 +15 1010.1 1000.9 +15.0
06 19.05 В 5
{10}
20 км 8/3 600 м
[Sc diur, vesp Ac cast Ci fib]
+20.1 +15.7 76 +23 +25 комфорт 1010.7 1001.6
09 19.05 В 5 20 км 9/3 600 м
[Sc diur, vesp Ac cast Ci fib]
+23.8 +14.2 55 +26 +30 жарко 1011.0 1002.0
12 19.05 В 4 20 км пыльный позёмок 9/3 600 м
[Sc diur, vesp Ac cast Ci fib]
+25.9 +11.4 40 +27 +30 жарко 1010.8 1001.9
15 19.05 ЮВ 2 20 км {метель} 9/4 600 м
[Sc diur, vesp Ac cast Ci fib]
+25.5 +11.5 42 +27 +28 жарко 1011.6 1002.6 +26.0
18 19.05 С 3 20 км {метель} 8/3 600 м
[Sc diur, vesp Ci fib]
+19.2 +12.0 63 +21 +21 комфорт 1012.4 1003.2
21 19.05 В 1 20 км 6/1 600 м
[Sc diur, vesp Ci fib]
+16.6 +7.9 56 +18 +18 1013.3 1004.1
00 20.05 СЗ 1 20 км 4/0
[Ci fib]
+12.7 +8.7 77 +13 +13 1014.4 1005.1
03 20.05 СВ 2 20 км 8/3 600 м
[Sc diur, vesp Ac cast Ci fib]
+16.4 +7.3 55 +17 +17 1015.2 1005.9 +12.4
06 20.05 В 4 20 км 1/0
[Ci fib]
+22.4 +6.5 36 +23 +30 комфорт 1016.2 1007.1
09 20.05 СВ 4 20 км 3/0
[Ci fib]
+24.7 +5.2 28 +24 +36 комфорт 1016.8 1007.8
12 20.05 В 2 20 км 9/0
[Ci fib]
+26.0 +5.9 28 +26 +35 жарко 1016.7 1007.7
15 20.05 СВ 2 20 км 4/0
[Ci fib]
+24.5 +5.4 29 +24 +26 комфорт 1016.5 1007.5 +26.0
18 20.05 С 4 20 км 3/0
[Ci fib]
+17.9 +6.2 46 +18 +18 1018.2 1008.9
21 20.05 СВ 2 20 км ясно +14.7 +4.2 49 +15 +15 1019.2 1009.8
00 21.05 В 3 20 км ясно +12.3 +2.8 52 +11 +11 1019.6 1010.1
03 21.05 В 2 20 км 3/0
[Ci fib]
+12.5 +2.3 50 +12 +13 1020.2 1010.7 +11.0
06 21.05 ЮВ 3 20 км 3/0
[Ci fib]
+19.9 +2.4 31 +20 +29 1020.4 1011.2
09 21.05 В 4 20 км 8/0
[Ci fib]
+23.4 +4.3 29 +23 +34 комфорт 1019.8 1010.7
12 21.05 В 5 20 км 8/0
[Ci fib]
+24.5 +5.1 29 +24 +30 комфорт 1018.2 1009.2
15 21.05 В 3 20 км 9/0
[Ci fib]
+23.1 +5.4 32 +23 +25 комфорт 1017.5 1008.4 +24.8
18 21.05 В 3 20 км 9/0
[Ci fib]
+18.8 +4.9 40 +19 +19 1017.4 1008.2
21 21.05 В 3 20 км 9/0
[Ci fib]
+17.3 +5.5 46 +17 +17 1016.7 1007.4
00 22.05 В 3 20 км 9/4 600 м
[Sc Ci fib]
+15.1 +8.7 66 +14 +14 1016.7 1007.4
03 22.05 В 4 20 км 9/8 600 м
[Sc Ac cast]
+14.2 +7.7 65 +13 +13 1016.9 1007.6 +13.4
06 22.05 ЮВ 5
{10}
20 км 9/8 600 м
[Sc Ac cast]
+17.3 +5.6 46 +17 +17 1015.3 1006.0
09 22.05 ЮВ 5
{11}
20 км пыльный позёмок 9/3 600 м
[Cb cap Ac cast]
+21.0 +9.2 47 +23 +25 комфорт 1014.4 1005.3
12 22.05 Ю 2
{10}
4000 м ливневой дождь {метель} 10/10 600 м
[Cb cap]
+16.2 +14.8 91 +16 +16 1014.4 1005.2
15 22.05 ЮЗ 3 4000 м слаб. ливневой дождь 10/10 600 м
[Cb cap]
+17.1 +15.6 91 +17 +17 1013.7 1004.5 +21.7 3
18 22.05 ЮВ 1 4000 м дымка {ливн. осадки} 8/4 600 м
[Cb cap Ac lent]
+15.3 +14.8 97 +16 +16 1013.5 1004.3
21 22.05 Ю 1 4000 м гроза без осадков 10/5 600 м
[Cb cap Ac lent]
+14.8 +14.1 96 +15 +15 1012.7 1003.4
00 23.05 Ю 1 4000 м в посл. час гроза {ливн. осадки} 3/1 600 м
[Sc Ci]
+12.6 +12.0 96 +13 +13 1012.3 1003.0
03 23.05 Ю 1 4000 м дымка 3/3 600 м
[Sc Ac lent]
+14.1 +13.8 98 +14 +15 1011.8 1002.5 +11.3 2
06 23.05 ЮЗ 4 20 км {гроза} 8/5 600 м
[Sc diur, vesp Ac cast Ci fib]
+18.7 +13.7 73 +19 +22 1011.4 1002.3
09 23.05 З 4
{10}
20 км 9/8 600 м
[Cb calv Ac cast Ci fib]
+22.2 +12.3 53 +25 +26 комфорт 1010.3 1001.3
12 23.05 З 3
{11}
20 км в посл. час ливневой дождь {гроза} 8/6 600 м
[Cb calv Ac cast Ci fib]
+19.1 +12.3 65 +20 +23 1010.9 1001.8
15 23.05 СЗ 3 20 км 9/8 600 м
[Cb calv Ac cast Ci fib]
+18.3 +11.4 64 +19 +19 1010.0 1000.9 +22.9 0.8
18 23.05 Ю 2 20 км {ливн. осадки} 9/8 600 м
[Cb calv Ac cast Ci fib]
+16.5 +13.9 85 +17 +17 1010.8 1001.6
21 23.05 З 2 20 км 8/5 600 м
[Sc diur, vesp Ac cast Ci fib]
+15.7 +12.9 83 +16 +16 1010.6 1001.4
00 24.05 З 2 20 км 6/4 600 м
[Sc diur, vesp Ci fib]
+15.6 +12.7 83 +15 +15 1010.1 1000.9
03 24.05 З 2 20 км 9/6 600 м
[Sc diur, vesp Ac cast Ci fib]
+15.8 +13.7 87 +16 +16 1010.1 1000.9 +14.8 0.1
06 24.05 З 2 20 км 8/8 600 м
[Cb cap]
+19.6 +16.0 80 +22 +24 комфорт 1010.6 1001.5
09 24.05 ЮЗ 2 20 км 8/8 600 м
[Cb cap]
+22.7 +14.5 60 +26 +30 жарко 1010.4 1001.4
12 24.05 СЗ 2 20 км 8/8 600 м
[Cb cap]
+24.4 +13.6 51 +27 +29 жарко 1009.9 1000.9
15 24.05 С 1 20 км 9/5 600 м
[Sc diur, vesp Ci ing]
+24.4 +12.8 48 +26 +27 жарко 1009.4 1000.5 +25.2
18 24.05 СВ 1 20 км 9/3 600 м
[Sc diur, vesp Ci fib]
+18.4 +15.1 81 +20 +20 1010.1 1001.0
21 24.05 СВ 1 4000 м дымка 6/0
[Ci fib]
+14.6 +13.7 94 +15 +15 1010.4 1001.1
00 25.05 В 2 20 км 9/4 600 м
[Sc Ci]
+16.7 +12.8 78 +17 +17 1009.6 1000.4
03 25.05 В 3 20 км 9/4 600 м
[Sc Ac trans]
+16.8 +12.7 77 +17 +17 1009.2 1000.0 +14.5
06 25.05 В 4 20 км в посл. час ливневой дождь 8/4 600 м
[Sc Ac trans Ci fib]
+23.5 +15.0 59 +26 +29 жарко 1008.4 999.4
09 25.05 ЮВ 5-10
{11}
20 км 9/3 600 м
[Sc Cs]
+26.3 +11.4 39 +27 +33 жарко 1006.8 997.9

 

Местоположение метеостанции Гигант (Ростовская область, Россия): широта 46.52 долгота 41.35 высота над уровнем моря 79 м.

В архиве по умолчанию представлена погода в Гиганте за последнюю неделю. Архивные данные за месяц целиком и за предыдущие месяцы, начиная с января 2011 года, Вы можете получить, выбрав интересующий диапазон дат из раскрывающегося списка и нажав кнопку "Ввод!".


*Определитесь, кто Вы:
робот инопланетянин человек

Внимание! Время в таблицах - всемирное. Для получения местного времени необходимо прибавить поправку, которая равна 3 ч.

Смотрите также архив погоды в соседних городах и на ближайших метеорологических станциях:

Погода в Белой Глине (Краснодарский край, Россия) (61 км)
Погода в Городовиковске (Калмыкия, Россия) (69 км)
Погода в Красногвардейском (Ставропольский край, Россия) (77 км)
Погода в Зерноград (Ростовская область, Россия) (87 км)
Погода в Зимовниках (Ростовская область, Россия) (111 км)
Погода в Новоалександровске (Ставропольский край, Россия) (114 км)
Погода в Семикаракорске (Ростовская область, Россия) (118 км)
Погода в Константиновске (Ростовская область, Россия) (119 км)
Погода в Тихорецке (Краснодарский край, Россия) (123 км)
Погода в Сосыке (Краснодарский край, Россия) (125 км)

Пояснения к столбцам:

Ветер - указаны скорость ветра в м/с - средняя за 10 мин, порывы в срок и между сроками (в фигурных скобках) и направление, откуда дует ветер: С - северный, СВ - северо-восточный, В - восточный, ЮВ - юго-восточный, Ю - южный, ЮЗ - юго-западный, З - западный, СЗ - северо-западный.
Видимость - горизонтальная дальность видимости в метрах или километрах. При видимости от 1 до 10 км при отсутствии осадков обычно наблюдается дымка, при ухудшении видимости до 1 км и менее - туман. В сухую погоду видимость может ухудшаться дымом, пылью или мглою.
Явления - указаны атмосферные явления, наблюдавшиеся в срок или в последний час перед сроком; фигурными скобками обозначены явления, наблюдавшиеся между сроками (за 1-3 часа до срока); квадратными скобками обозначены град или гололедные отложения с указанием их диаметра в мм.
Облачность - указаны через наклонную черту общая и нижняя облачность в баллах и высота нижней границы облаков в метрах; квадратными скобками обозначены формы облаков: Ci - перистые, Cs - перисто-слоистые, Cc - перисто-кучевые, Ac - высококучевые, As - высокослоистые, Sc - слоисто-кучевые, Ns - слоисто-дождевые, Cu - кучевые, Cb - кучево-дождевые. Подробнее классификацию облаков см. в Атласе облаков (PDF).
T - Температура воздуха - температура, измеренная на высоте 2 м над землей.
Td - Температура точки росы - температура, при понижении до которой содержащийся в воздухе водяной пар достигнет насыщения.
f - Относительная влажность воздуха - влажноcть воздуха, измеренная на высоте 2 м над землей.
Te - Эффективная температура - температура, которую ощущает одетый по сезону человек в тени. Характеристика душности погоды. При расчете учитывается влияние влажности воздуха и скорости ветра на теплоощущения человека.
Tes - Эффективная температура на солнце - температура, которую ощущает человек, с поправкой на солнечный нагрев. Характеристика знойности погоды. Зависит от высоты солнца над горизонтом, облачности и скорости ветра. Ночью, в пасмурную погоду, а также при ветре 12 м/с и более поправка равна нулю.
P - Атмосферное давление - приведенное к уровню моря атмосферное давление.
Po - Атмосферное давление - измеренное на уровне метеостанции атмосферное давление.
Tmin - Минимальная температура - минимум температуры воздуха на высоте 2 м над землей.
Tmax - Максимальная температура - максимум температуры воздуха на высоте 2 м над землей.
R - Количество осадков - Количество выпавших осадков за период времени, мм. При наведении курсора мыши на число - период времени, за который выпало указанное количество осадков.
R24 - Количество осадков - Количество выпавших осадков за 24 часа, мм.
S - Снежный покров - Высота снежного покрова, см. При наведении курсора мыши на число - состояние снежного покрова и степень покрытия местности в баллах.